TimeMST,TemperatureF,Dew PointF,Humidity,Sea Level PressureIn,VisibilityMPH,Wind Direction,Wind SpeedMPH,Gust SpeedMPH,PrecipitationIn,Events,Conditions,WindDirDegrees,DateUTC
12:48 AM,16.0,14.0,92,30.14,-9999.0,Calm,Calm,-,N/A,,Unknown,0,2013-01-25 07:48:00
1:48 AM,17.1,14.0,88,30.13,-9999.0,WNW,5.8,-,N/A,,Unknown,290,2013-01-25 08:48:00
2:48 AM,16.0,12.9,88,30.13,-9999.0,Calm,Calm,-,N/A,,Unknown,0,2013-01-25 09:48:00
3:48 AM,17.1,12.9,84,30.12,-9999.0,Calm,Calm,-,N/A,,Unknown,0,2013-01-25 10:48:00
4:48 AM,16.0,12.9,88,30.10,-9999.0,Calm,Calm,-,N/A,,Unknown,0,2013-01-25 11:48:00
5:48 AM,15.1,10.9,84,30.12,-9999.0,Calm,Calm,-,N/A,,Unknown,0,2013-01-25 12:48:00
6:48 AM,14.0,10.9,88,30.12,-9999.0,Calm,Calm,-,N/A,,Unknown,0,2013-01-25 13:48:00
7:48 AM,12.9,10.0,88,30.13,-9999.0,WNW,3.5,-,N/A,,Unknown,300,2013-01-25 14:48:00
8:48 AM,17.1,15.1,92,30.13,-9999.0,Calm,Calm,-,N/A,,Unknown,0,2013-01-25 15:48:00
9:48 AM,26.1,21.0,81,30.11,-9999.0,Calm,Calm,-,N/A,,Unknown,0,2013-01-25 16:48:00
10:48 AM,35.1,26.1,70,30.09,-9999.0,Calm,Calm,-,N/A,,Unknown,0,2013-01-25 17:48:00
11:48 AM,43.0,27.0,53,30.06,-9999.0,Calm,Calm,-,N/A,,Unknown,0,2013-01-25 18:48:00
12:48 PM,48.9,27.0,43,30.03,-9999.0,SW,4.6,-,N/A,,Unknown,220,2013-01-25 19:48:00
1:48 PM,52.0,26.1,37,29.99,-9999.0,SSW,4.6,-,N/A,,Unknown,200,2013-01-25 20:48:00
2:48 PM,52.0,28.0,40,29.99,-9999.0,West,9.2,-,N/A,,Unknown,260,2013-01-25 21:48:00
3:48 PM,50.0,30.0,46,29.99,-9999.0,SSW,3.5,-,N/A,,Unknown,200,2013-01-25 22:48:00
4:48 PM,39.9,28.9,65,30.02,-9999.0,SSW,9.2,-,N/A,,Unknown,210,2013-01-25 23:48:00
5:48 PM,37.9,28.9,70,30.01,-9999.0,Variable,6.9,-,N/A,,Unknown,0,2013-01-26 00:48:00
6:48 PM,37.9,28.0,68,30.00,-9999.0,SW,8.1,-,N/A,,Unknown,230,2013-01-26 01:48:00
7:48 PM,37.9,28.0,68,29.98,-9999.0,Variable,3.5,-,N/A,,Unknown,0,2013-01-26 02:48:00
8:48 PM,39.0,28.0,65,29.97,-9999.0,Variable,4.6,-,N/A,,Unknown,0,2013-01-26 03:48:00
9:48 PM,39.9,28.0,63,29.94,-9999.0,Variable,4.6,-,N/A,,Unknown,0,2013-01-26 04:48:00
10:48 PM,36.0,28.0,73,29.93,-9999.0,Calm,Calm,-,N/A,,Unknown,0,2013-01-26 05:48:00
11:48 PM,32.0,28.0,85,29.91,-9999.0,SSW,3.5,-,N/A,,Unknown,200,2013-01-26 06:48:00